TimeEST,TemperatureF,Dew PointF,Humidity,Sea Level PressureIn,VisibilityMPH,Wind Direction,Wind SpeedMPH,Gust SpeedMPH,PrecipitationIn,Events,Conditions,WindDirDegrees,DateUTC
12:15 AM,44.6,44.6,100,30.24,0.8,Calm,Calm,-,N/A,,Overcast,0,2013-12-20 05:15:00
12:35 AM,44.6,44.6,100,30.23,1.2,Calm,Calm,-,N/A,,Overcast,0,2013-12-20 05:35:00
12:55 AM,42.8,42.8,100,30.22,3.0,Calm,Calm,-,N/A,,Overcast,0,2013-12-20 05:55:00
1:15 AM,42.8,42.8,100,30.22,0.5,Calm,Calm,-,N/A,Fog,Fog,0,2013-12-20 06:15:00
1:35 AM,44.6,44.6,100,30.21,0.2,Calm,Calm,-,N/A,Fog,Fog,0,2013-12-20 06:35:00
1:55 AM,42.8,42.8,100,30.21,0.2,Calm,Calm,-,N/A,Fog,Fog,0,2013-12-20 06:55:00
2:15 AM,44.6,44.6,100,30.21,0.2,Calm,Calm,-,N/A,Fog,Fog,0,2013-12-20 07:15:00
2:35 AM,42.8,42.8,100,30.21,0.5,Calm,Calm,-,N/A,Fog,Fog,0,2013-12-20 07:35:00
2:55 AM,42.8,42.8,100,30.21,6.0,Calm,Calm,-,N/A,,Overcast,0,2013-12-20 07:55:00
3:15 AM,42.8,42.8,100,30.21,5.0,Calm,Calm,-,N/A,,Overcast,0,2013-12-20 08:15:00
3:35 AM,41.0,41.0,100,30.21,0.2,Calm,Calm,-,N/A,Fog,Fog,0,2013-12-20 08:35:00
3:55 AM,41.0,41.0,100,30.21,0.2,Calm,Calm,-,N/A,Fog,Fog,0,2013-12-20 08:55:00
4:15 AM,42.8,42.8,100,30.21,0.5,Calm,Calm,-,N/A,Fog,Fog,0,2013-12-20 09:15:00
4:35 AM,41.0,41.0,100,30.21,0.5,Calm,Calm,-,N/A,Fog,Fog,0,2013-12-20 09:35:00
4:55 AM,41.0,41.0,100,30.21,3.0,Calm,Calm,-,N/A,,Overcast,0,2013-12-20 09:55:00
5:15 AM,41.0,41.0,100,30.21,3.0,Calm,Calm,-,N/A,,Overcast,0,2013-12-20 10:15:00
5:35 AM,41.0,41.0,100,30.22,1.8,Calm,Calm,-,N/A,,Overcast,0,2013-12-20 10:35:00
5:55 AM,41.0,41.0,100,30.22,1.0,Calm,Calm,-,N/A,,Overcast,0,2013-12-20 10:55:00
6:15 AM,41.0,41.0,100,30.22,1.0,Calm,Calm,-,N/A,,Overcast,0,2013-12-20 11:15:00
6:35 AM,41.0,41.0,100,30.23,2.5,Calm,Calm,-,N/A,,Overcast,0,2013-12-20 11:35:00
6:50 AM,41.0,41.0,100,30.22,2.5,Calm,Calm,-,N/A,,Clear,0,2013-12-20 11:50:00
7:50 AM,41.0,41.0,100,30.23,5.0,Calm,Calm,-,N/A,,Clear,0,2013-12-20 12:50:00
8:50 AM,50.0,48.2,94,30.23,10.0,Calm,Calm,-,N/A,,Clear,0,2013-12-20 13:50:00
9:50 AM,62.6,57.2,82,30.24,10.0,Calm,Calm,-,N/A,,Clear,0,2013-12-20 14:50:00
10:50 AM,68.0,57.2,68,30.23,10.0,Calm,Calm,-,N/A,,Clear,0,2013-12-20 15:50:00
11:50 AM,73.4,57.2,57,30.21,10.0,South,9.2,-,N/A,,Clear,170,2013-12-20 16:50:00
12:50 PM,75.2,57.2,53,30.19,10.0,SSE,8.1,-,N/A,,Clear,160,2013-12-20 17:50:00
1:50 PM,75.2,57.2,53,30.16,10.0,Variable,6.9,-,N/A,,Partly Cloudy,0,2013-12-20 18:50:00
2:50 PM,75.2,57.2,53,30.15,10.0,Variable,6.9,-,N/A,,Partly Cloudy,0,2013-12-20 19:50:00
3:50 PM,75.2,57.2,53,30.16,10.0,SSE,4.6,-,N/A,,Scattered Clouds,150,2013-12-20 20:50:00
4:50 PM,71.6,59.0,64,30.16,10.0,East,9.2,-,N/A,,Partly Cloudy,90,2013-12-20 21:50:00
5:50 PM,68.0,59.0,73,30.18,10.0,Calm,Calm,-,N/A,,Clear,0,2013-12-20 22:50:00
6:50 PM,64.4,57.2,77,30.19,10.0,Calm,Calm,-,N/A,,Clear,0,2013-12-20 23:50:00
7:50 PM,62.6,57.2,82,30.20,10.0,Calm,Calm,-,N/A,,Clear,0,2013-12-21 00:50:00
8:15 PM,59.0,57.2,94,30.19,10.0,Calm,Calm,-,N/A,,Clear,0,2013-12-21 01:15:00
8:35 PM,57.2,55.4,94,30.18,10.0,Calm,Calm,-,N/A,,Clear,0,2013-12-21 01:35:00
8:55 PM,57.2,55.4,94,30.18,10.0,Calm,Calm,-,N/A,,Clear,0,2013-12-21 01:55:00
9:15 PM,57.2,55.4,94,30.18,10.0,Calm,Calm,-,N/A,,Clear,0,2013-12-21 02:15:00
9:35 PM,57.2,55.4,94,30.18,10.0,Calm,Calm,-,N/A,,Clear,0,2013-12-21 02:35:00
9:55 PM,55.4,53.6,94,30.18,10.0,Calm,Calm,-,N/A,,Clear,0,2013-12-21 02:55:00
10:15 PM,55.4,53.6,94,30.18,7.0,Calm,Calm,-,N/A,,Clear,0,2013-12-21 03:15:00
10:35 PM,55.4,53.6,94,30.19,3.0,Calm,Calm,-,N/A,,Clear,0,2013-12-21 03:35:00
10:55 PM,55.4,55.4,100,30.18,7.0,Calm,Calm,-,N/A,,Clear,0,2013-12-21 03:55:00
11:15 PM,55.4,53.6,94,30.17,8.0,Calm,Calm,-,N/A,,Clear,0,2013-12-21 04:15:00
11:35 PM,55.4,53.6,94,30.17,9.0,Calm,Calm,-,N/A,,Clear,0,2013-12-21 04:35:00
11:55 PM,53.6,53.6,100,30.16,7.0,Calm,Calm,-,N/A,,Clear,0,2013-12-21 04:55:00